| time (UTC) | temp C | wind direction | speed KPH | gust KPH | rain 1hr cm | rain 24hr cm | rain mn cm | humidity % | barometer mb |
| 20260508111603 | 6 | 141 | 0.0 | 0.0 | 0.00 | 0.00 | 0.00 | 91 | 1015.1 |
| 20260508110021 | 3 | 141 | 0.0 | 1.6 | 0.00 | 0.00 | 0.00 | 92 | 1015.0 |
| 20260508104533 | 3 | 141 | 0.0 | 1.6 | 0.00 | 0.00 | 0.00 | 92 | 1014.9 |
| 20260508103045 | 3 | 141 | 0.0 | 1.6 | 0.00 | 0.00 | 0.00 | 91 | 1014.8 |
| 20260508101554 | 3 | 141 | 0.0 | 0.0 | 0.00 | 0.00 | 0.00 | 91 | 1014.8 |
| 20260508100009 | 3 | 141 | 0.0 | 0.0 | 0.00 | 0.00 | 0.00 | 90 | 1014.7 |
| 20260508094530 | 4 | 141 | 0.0 | 1.6 | 0.00 | 0.00 | 0.00 | 89 | 1014.8 |
| 20260508093051 | 4 | 141 | 0.0 | 1.6 | 0.00 | 0.00 | 0.00 | 89 | 1014.7 |
| 20260508091502 | 5 | 141 | 0.0 | 0.0 | 0.00 | 0.00 | 0.00 | 87 | 1014.9 |
| 20260508090022 | 5 | 144 | 0.0 | 0.0 | 0.00 | 0.00 | 0.00 | 86 | 1014.9 |
| 20260508084534 | 6 | 144 | 0.0 | 1.6 | 0.00 | 0.00 | 0.00 | 87 | 1014.8 |
| 20260508083007 | 5 | 146 | 0.0 | 1.6 | 0.00 | 0.00 | 0.00 | 87 | 1014.8 |
| 20260508081523 | 5 | 146 | 0.0 | 1.6 | 0.00 | 0.00 | 0.00 | 88 | 1014.9 |
| 20260508080030 | 5 | 146 | 0.0 | 0.0 | 0.00 | 0.00 | 0.00 | 88 | 1014.9 |
| 20260508074550 | 5 | 146 | 0.0 | 3.2 | 0.00 | 0.00 | 0.00 | 88 | 1015.1 |
| 20260508073008 | 5 | 120 | 0.0 | 0.0 | 0.00 | 0.00 | 0.00 | 89 | 1015.2 |
| 20260508071512 | 5 | 127 | 0.0 | 0.0 | 0.00 | 0.00 | 0.00 | 90 | 1015.2 |
| 20260508070032 | 5 | 33 | 0.0 | 0.0 | 0.00 | 0.00 | 0.00 | 91 | 1015.3 |
| 20260508064550 | 4 | 33 | 0.0 | 0.0 | 0.00 | 0.00 | 0.00 | 90 | 1015.0 |
| 20260508063138 | 4 | 33 | 0.0 | 0.0 | 0.00 | 0.00 | 0.00 | 90 | 1014.8 |
| 20260508061505 | 4 | 33 | 0.0 | 0.0 | 0.00 | 0.00 | 0.00 | 90 | 1014.8 |
| 20260508060016 | 4 | 33 | 0.0 | 0.0 | 0.00 | 0.00 | 0.00 | 90 | 1015.0 |
| 20260508054523 | 4 | 33 | 0.0 | 0.0 | 0.00 | 0.00 | 0.00 | 91 | 1014.9 |
| 20260508053052 | 4 | 33 | 0.0 | 0.0 | 0.00 | 0.00 | 0.00 | 91 | 1015.1 |
| 20260508051616 | 4 | 33 | 0.0 | 0.0 | 0.00 | 0.00 | 0.00 | 90 | 1015.3 |
| 20260508050007 | 4 | 33 | 0.0 | 0.0 | 0.00 | 0.00 | 0.00 | 89 | 1015.3 |
| 20260508044525 | 4 | 33 | 0.0 | 0.0 | 0.00 | 0.00 | 0.00 | 88 | 1015.3 |
| 20260508043035 | 4 | 33 | 0.0 | 0.0 | 0.00 | 0.00 | 0.00 | 88 | 1015.2 |
| 20260508041547 | 5 | 33 | 0.0 | 0.0 | 0.00 | 0.00 | 0.00 | 86 | 1015.2 |
| 20260508040003 | 5 | 33 | 0.0 | 0.0 | 0.00 | 0.00 | 0.00 | 85 | 1015.0 |
| 20260508034527 | 5 | 33 | 0.0 | 0.0 | 0.00 | 0.00 | 0.00 | 83 | 1015.1 |
| 20260508033043 | 5 | 33 | 0.0 | 0.0 | 0.00 | 0.00 | 0.00 | 82 | 1015.0 |
| 20260508031545 | 6 | 33 | 0.0 | 0.0 | 0.00 | 0.00 | 0.00 | 78 | 1014.8 |
| 20260508024523 | 6 | 33 | 0.0 | 0.0 | 0.00 | 0.00 | 0.00 | 78 | 1015.1 |
| 20260508023032 | 7 | 33 | 0.0 | 0.0 | 0.00 | 0.00 | 0.00 | 73 | 1015.0 |
| 20260508021553 | 7 | 33 | 0.0 | 0.0 | 0.00 | 0.00 | 0.00 | 71 | 1014.9 |
| 20260508020107 | 7 | 33 | 0.0 | 0.0 | 0.00 | 0.00 | 0.00 | 69 | 1014.9 |
| 20260508014516 | 8 | 33 | 0.0 | 0.0 | 0.00 | 0.00 | 0.00 | 66 | 1014.8 |
| 20260508013033 | 8 | 33 | 0.0 | 0.0 | 0.00 | 0.00 | 0.00 | 64 | 1014.6 |
| 20260508011550 | 9 | 269 | 0.0 | 0.0 | 0.00 | 0.00 | 0.00 | 62 | 1014.4 |
| 20260508004559 | 11 | 269 | 0.0 | 0.0 | 0.00 | 0.00 | 0.00 | 54 | 1014.2 |
| 20260508003021 | 12 | 269 | 0.0 | 6.4 | 0.00 | 0.00 | 0.00 | 48 | 1014.1 |
| 20260508001536 | 12 | 274 | 1.6 | 6.4 | 0.00 | 0.00 | 0.00 | 46 | 1014.1 |
| 20260508000046 | 13 | 323 | 1.6 | 11.3 | 0.00 | 0.00 | 0.00 | 45 | 1014.0 |
| 20260507234547 | 13 | 2 | 3.2 | 11.3 | 0.00 | 0.00 | 0.00 | 43 | 1013.7 |
| 20260507233054 | 13 | 41 | 1.6 | 16.1 | 0.00 | 0.00 | 0.00 | 44 | 1013.6 |
| 20260507231503 | 14 | 278 | 6.4 | 14.5 | 0.00 | 0.00 | 0.00 | 43 | 1013.6 |
| 20260507230036 | 14 | 198 | 4.8 | 14.5 | 0.00 | 0.00 | 0.00 | 43 | 1013.7 |
| 20260507224536 | 13 | 314 | 4.8 | 16.1 | 0.00 | 0.00 | 0.00 | 43 | 1013.8 |
| 20260507223150 | 14 | 278 | 9.7 | 22.5 | 0.00 | 0.00 | 0.00 | 44 | 1013.9 |
| 20260507221502 | 14 | 295 | 9.7 | 24.1 | 0.00 | 0.00 | 0.00 | 44 | 1013.7 |
| 20260507220020 | 15 | 281 | 8.0 | 17.7 | 0.00 | 0.00 | 0.00 | 44 | 1013.6 |
| 20260507214539 | 15 | 323 | 8.0 | 24.1 | 0.00 | 0.00 | 0.00 | 44 | 1013.4 |
| 20260507213051 | 15 | 240 | 8.0 | 22.5 | 0.00 | 0.00 | 0.00 | 45 | 1013.3 |
| 20260507211504 | 15 | 346 | 8.0 | 22.5 | 0.00 | 0.00 | 0.00 | 45 | 1013.0 |
| 20260507210031 | 15 | 286 | 8.0 | 20.9 | 0.00 | 0.00 | 0.00 | 45 | 1012.8 |
| 20260507204537 | 15 | 311 | 6.4 | 25.7 | 0.00 | 0.00 | 0.00 | 44 | 1012.6 |
| 20260507203032 | 15 | 358 | 4.8 | 19.3 | 0.00 | 0.00 | 0.00 | 47 | 1012.8 |
| 20260507201531 | 15 | 342 | 9.7 | 22.5 | 0.00 | 0.00 | 0.00 | 42 | 1012.6 |
| 20260507200000 | 15 | 255 | 9.7 | 35.4 | 0.00 | 0.00 | 0.00 | 42 | 1012.9 |
| 20260507194521 | 15 | 299 | 6.4 | 20.9 | 0.00 | 0.00 | 0.00 | 41 | 1012.8 |
| 20260507193041 | 15 | 317 | 4.8 | 20.9 | 0.00 | 0.00 | 0.00 | 43 | 1013.0 |
| 20260507191526 | 15 | 338 | 4.8 | 19.3 | 0.00 | 0.00 | 0.00 | 46 | 1012.9 |
| 20260507190039 | 16 | 252 | 8.0 | 17.7 | 0.00 | 0.00 | 0.00 | 41 | 1013.0 |
| 20260507184541 | 15 | 331 | 8.0 | 20.9 | 0.00 | 0.00 | 0.00 | 44 | 1013.2 |
| 20260507183059 | 15 | 309 | 4.8 | 16.1 | 0.00 | 0.00 | 0.00 | 46 | 1013.0 |
| 20260507181501 | 15 | 203 | 8.0 | 16.1 | 0.00 | 0.00 | 0.00 | 44 | 1013.0 |
| 20260507180008 | 15 | 341 | 6.4 | 20.9 | 0.00 | 0.00 | 0.00 | 47 | 1013.3 |
| 20260507174519 | 14 | 259 | 8.0 | 16.1 | 0.00 | 0.00 | 0.00 | 46 | 1013.4 |
| 20260507173043 | 14 | 294 | 9.7 | 22.5 | 0.00 | 0.00 | 0.00 | 46 | 1013.5 |
| 20260507171601 | 15 | 283 | 6.4 | 24.1 | 0.00 | 0.00 | 0.00 | 49 | 1013.6 |
| 20260507170006 | 15 | 288 | 4.8 | 14.5 | 0.00 | 0.00 | 0.00 | 49 | 1013.7 |
| 20260507164526 | 14 | 278 | 11.3 | 20.9 | 0.00 | 0.00 | 0.00 | 45 | 1013.9 |
| 20260507163037 | 14 | 234 | 9.7 | 25.7 | 0.00 | 0.00 | 0.00 | 47 | 1014.0 |
| 20260507161607 | 14 | 307 | 9.7 | 16.1 | 0.00 | 0.00 | 0.00 | 47 | 1014.0 |
| 20260507160010 | 13 | 257 | 6.4 | 19.3 | 0.00 | 0.00 | 0.00 | 45 | 1013.9 |
| 20260507154528 | 13 | 270 | 8.0 | 17.7 | 0.00 | 0.00 | 0.00 | 48 | 1014.0 |
| 20260507153035 | 13 | 150 | 8.0 | 20.9 | 0.00 | 0.00 | 0.00 | 47 | 1014.1 |
| 20260507151556 | 13 | 305 | 6.4 | 19.3 | 0.00 | 0.00 | 0.00 | 47 | 1014.1 |
| 20260507150051 | 13 | 292 | 11.3 | 19.3 | 0.00 | 0.00 | 0.00 | 48 | 1014.1 |
| 20260507144546 | 13 | 265 | 6.4 | 17.7 | 0.00 | 0.00 | 0.00 | 49 | 1014.3 |
| 20260507143003 | 12 | 311 | 6.4 | 19.3 | 0.00 | 0.00 | 0.00 | 52 | 1014.4 |
| 20260507141515 | 12 | 307 | 1.6 | 12.9 | 0.00 | 0.00 | 0.00 | 54 | 1014.5 |
| 20260507140021 | 12 | 290 | 4.8 | 12.9 | 0.00 | 0.00 | 0.00 | 58 | 1014.8 |
| 20260507134527 | 11 | 236 | 3.2 | 11.3 | 0.00 | 0.00 | 0.00 | 62 | 1014.8 |
| 20260507133032 | 11 | 247 | 1.6 | 9.7 | 0.00 | 0.00 | 0.00 | 68 | 1015.1 |
| 20260507131559 | 10 | 304 | 3.2 | 6.4 | 0.00 | 0.00 | 0.00 | 69 | 1015.0 |
| 20260507130012 | 10 | 248 | 0.0 | 8.0 | 0.00 | 0.00 | 0.00 | 73 | 1015.1 |
| 20260507124518 | 9 | 347 | 1.6 | 9.7 | 0.00 | 0.03 | 0.00 | 76 | 1015.1 |
| 20260507123041 | 8 | 214 | 0.0 | 3.2 | 0.00 | 0.03 | 0.00 | 82 | 1015.1 |
| 20260507121555 | 7 | 135 | 0.0 | 0.0 | 0.00 | 0.03 | 0.00 | 88 | 1015.1 |
| 20260507120052 | 7 | 132 | 0.0 | 0.0 | 0.00 | 0.03 | 0.00 | 91 | 1015.0 |
| 20260507114557 | 6 | 6 | 0.0 | 0.0 | 0.00 | 0.05 | 0.00 | 96 | 1015.1 |
| 20260507113006 | 5 | 6 | 0.0 | 0.0 | 0.00 | 0.05 | 0.00 | 97 | 1014.9 |